Tracking 28052 objects as of 21-Sep-2023
HD Live streaming from Space Station
objects crossing your sky now

STARLINK-5435

Track STARLINK-5435 now!
10-day predictions
STARLINK-5435 is classified as:


NORAD ID: 54797
Int'l Code: 2022-175AR
Perigee: 546.0 km
Apogee: 547.8 km
Inclination: 53.2 °
Period: 95.4 minutes
Semi major axis: 6917 km
RCS: Unknown
Launch date: December 17, 2022
Source: United States (US)
Launch site: AIR FORCE EASTERN TEST RANGE (AFETR)
Your satellite tracking list
Your tracking list is empty




NASA's NSSDC Master Catalog

Two Line Element Set (TLE):
1 54797U 22175AR  23263.90723191 -.00005089  00000-0 -30198-3 0  9995
2 54797  53.2145 127.7340 0001282 101.6553 258.4583 15.08824250 43931
Source of the keplerian elements: AFSPC